Total_Precipitation_Accumulation
0.00 0.00 0.00 0.00 0.00 0.00 0.00 0.00 0.00 0.00 0.00 0.00 0.00 0.00 0.00 0.00 0.00 0.00 0.00 0.00 0.00 0.00 0.00 0.00 0.00 0.00 0.00 0.00 0.00 0.00 0.00 0.02 0.01 0.05 0.09 0.01 0.01 0.03 0.01 0.00 0.02 0.12 0.07 0.07 0.03 0.03 0.03 0.06 0.04 0.10 0.00 0.02 0.01 0.00 0.00 0.00 0.00 0.00 0.00 0.00 0.00 0.00 0.00 0.00 0.00 0.00 0.00 0.00 0.00 0.00 0.00 0.00 0.00 0.00 0.00 0.00 0.00 0.00 0.01 0.01 0.02 0.05 0.03 0.02 0.03 0.06 0.01 0.01 0.01 0.00 0.00 0.00 0.00 0.00 0.00 0.00 0.00
0.00 0.00 0.00 0.00 0.00 0.00 0.00 0.00 0.00 0.00 0.00 0.00 0.00 0.00 0.00 0.00 0.00 0.00 0.00 0.00 0.00 0.00 0.00 0.00 0.00 0.00 0.00 0.00 0.00 0.00 0.00 0.00 0.00 0.01 0.02 0.04 0.03 0.02 0.03 0.02 0.03 0.15 0.10 0.07 0.06 0.06 0.06 0.08 0.04 0.04 0.06 0.02 0.01 0.00 0.00 0.00 0.00 0.00 0.00 0.00 0.00 0.00 0.00 0.00 0.00 0.00 0.00 0.00 0.00 0.00 0.00 0.01 0.00 0.00 0.00 0.00 0.00 0.00 0.00 0.00 0.04 0.10 0.03 0.07 0.05 0.05 0.01 0.01 0.00 0.00 0.00 0.00 0.00 0.00 0.00 0.00 0.00
0.00 0.00 0.00 0.00 0.00 0.00 0.00 0.00 0.00 0.00 0.00 0.00 0.00 0.00 0.00 0.00 0.00 0.00 0.00 0.00 0.00 0.00 0.00 0.00 0.00 0.00 0.00 0.00 0.00 0.00 0.04 0.02 0.00 0.02 0.05 0.03 0.03 0.10 0.03 0.05 0.05 0.10 0.13 0.19 0.07 0.05 0.09 0.10 0.06 0.05 0.06 0.05 0.02 0.01 0.00 0.00 0.00 0.00 0.00 0.00 0.00 0.00 0.00 0.00 0.00 0.00 0.00 0.00 0.00 0.00 0.00 0.00 0.01 0.00 0.00 0.00 0.02 0.00 0.01 0.01 0.03 0.08 0.03 0.04 0.03 0.01 0.00 0.01 0.00 0.00 0.00 0.00 0.00 0.00 0.00 0.00 0.00
0.00 0.00 0.00 0.00 0.00 0.00 0.00 0.00 0.00 0.00 0.00 0.00 0.00 0.00 0.00 0.00 0.00 0.00 0.00 0.00 0.00 0.00 0.00 0.00 0.00 0.00 0.00 0.00 0.00 0.00 0.02 0.02 0.01 0.02 0.06 0.04 0.05 0.03 0.04 0.04 0.06 0.15 0.36 0.16 0.15 0.08 0.11 0.09 0.08 0.04 0.09 0.07 0.02 0.02 0.01 0.01 0.00 0.00 0.00 0.00 0.00 0.00 0.00 0.00 0.00 0.00 0.00 0.00 0.00 0.00 0.00 0.01 0.00 0.01 0.01 0.00 0.00 0.07 0.02 0.01 0.07 0.11 0.08 0.04 0.02 0.01 0.01 0.00 0.00 0.00 0.00 0.00 0.00 0.00 0.00 0.01 0.02
0.00 0.00 0.00 0.00 0.00 0.00 0.00 0.00 0.00 0.00 0.00 0.00 0.00 0.00 0.00 0.00 0.00 0.00 0.00 0.00 0.00 0.00 0.00 0.00 0.00 0.00 0.00 0.00 0.00 0.01 0.00 0.01 0.01 0.01 0.01 0.02 0.02 0.03 0.04 0.07 0.12 0.39 0.24 0.32 0.14 0.14 0.10 0.08 0.07 0.08 0.12 0.11 0.03 0.04 0.02 0.01 0.01 0.01 0.00 0.00 0.00 0.00 0.00 0.00 0.00 0.00 0.00 0.00 0.00 0.00 0.00 0.00 0.00 0.01 0.04 0.01 0.00 0.03 0.08 0.01 0.04 0.04 0.04 0.01 0.01 0.01 0.01 0.01 0.00 0.00 0.00 0.00 0.00 0.01 0.02 0.04 0.04
0.00 0.00 0.00 0.00 0.00 0.00 0.00 0.00 0.00 0.00 0.00 0.00 0.00 0.00 0.00 0.00 0.00 0.00 0.00 0.00 0.00 0.00 0.00 0.00 0.00 0.00 0.01 0.00 0.01 0.02 0.06 0.06 0.01 0.02 0.04 0.07 0.03 0.04 0.06 0.35 0.61 0.32 0.21 0.16 0.15 0.15 0.14 0.08 0.04 0.13 0.19 0.14 0.13 0.07 0.07 0.05 0.05 0.04 0.01 0.00 0.00 0.00 0.00 0.00 0.00 0.00 0.00 0.00 0.00 0.00 0.00 0.00 0.00 0.01 0.03 0.01 0.02 0.01 0.01 0.00 0.00 0.02 0.04 0.05 0.03 0.01 0.01 0.01 0.00 0.00 0.00 0.00 0.03 0.01 0.01 0.02 0.02
0.00 0.00 0.00 0.00 0.00 0.00 0.00 0.00 0.00 0.00 0.00 0.00 0.00 0.00 0.00 0.00 0.00 0.00 0.00 0.00 0.00 0.00 0.00 0.00 0.00 0.00 0.01 0.02 0.00 0.03 0.00 0.03 0.02 0.05 0.02 0.04 0.06 0.05 0.10 0.50 0.59 0.29 0.19 0.11 0.11 0.14 0.10 0.03 0.03 0.05 0.14 0.17 0.28 0.21 0.15 0.08 0.07 0.05 0.09 0.08 0.04 0.02 0.01 0.00 0.00 0.00 0.00 0.00 0.00 0.00 0.00 0.01 0.00 0.00 0.01 0.00 0.02 0.02 0.01 0.01 0.01 0.02 0.05 0.05 0.04 0.04 0.01 0.01 0.00 0.00 0.01 0.01 0.04 0.01 0.01 0.02 0.00
0.00 0.00 0.00 0.00 0.00 0.00 0.00 0.00 0.00 0.00 0.00 0.00 0.00 0.00 0.00 0.00 0.00 0.00 0.00 0.00 0.00 0.00 0.00 0.00 0.00 0.00 0.39 0.00 0.11 0.03 0.04 0.02 0.04 0.02 0.01 0.02 0.04 0.27 0.47 0.60 0.34 0.27 0.15 0.13 0.14 0.11 0.07 0.02 0.03 0.02 0.07 0.08 0.10 0.10 0.19 0.20 0.18 0.12 0.08 0.08 0.10 0.11 0.03 0.01 0.01 0.02 0.00 0.00 0.00 0.00 0.00 0.00 0.01 0.00 0.01 0.01 0.02 0.03 0.13 0.06 0.03 0.01 0.01 0.01 0.01 0.02 0.02 0.01 0.00 0.00 0.01 0.04 0.00 0.00 0.00 0.00 0.00
0.00 0.00 0.00 0.00 0.00 0.00 0.00 0.00 0.00 0.00 0.00 0.00 0.00 0.00 0.00 0.00 0.00 0.00 0.00 0.00 0.00 0.00 0.00 0.00 0.00 0.06 0.08 0.02 0.05 0.08 0.04 0.11 0.04 0.02 0.03 0.04 0.14 0.37 0.59 0.45 0.38 0.20 0.09 0.22 0.18 0.16 0.05 0.03 0.02 0.01 0.02 0.03 0.04 0.11 0.12 0.08 0.13 0.09 0.09 0.08 0.07 0.05 0.05 0.08 0.04 0.01 0.00 0.00 0.00 0.00 0.00 0.00 0.01 0.00 0.00 0.02 0.01 0.00 0.08 0.09 0.04 0.04 0.05 0.02 0.03 0.01 0.01 0.01 0.06 0.01 0.02 0.03 0.01 0.00 0.00 0.00 0.00
0.00 0.00 0.00 0.00 0.00 0.00 0.00 0.00 0.00 0.00 0.00 0.00 0.00 0.00 0.00 0.00 0.00 0.00 0.00 0.00 0.00 0.00 0.00 0.00 0.00 0.05 0.04 0.32 0.08 0.11 0.28 0.05 0.11 0.03 0.06 0.04 0.14 0.37 0.98 0.98 0.63 0.40 0.33 0.19 0.20 0.16 0.10 0.13 0.01 0.01 0.01 0.02 0.04 0.09 0.06 0.06 0.03 0.07 0.05 0.06 0.08 0.01 0.02 0.04 0.06 0.02 0.02 0.00 0.00 0.00 0.00 0.00 0.00 0.01 0.01 0.02 0.03 0.02 0.03 0.06 0.02 0.05 0.06 0.05 0.02 0.08 0.01 0.02 0.02 0.03 0.04 0.01 0.01 0.00 0.00 0.00 0.00
0.00 0.00 0.00 0.00 0.00 0.00 0.00 0.00 0.00 0.00 0.00 0.00 0.00 0.00 0.00 0.00 0.00 0.00 0.00 0.00 0.00 0.00 0.00 0.00 0.01 0.01 0.01 0.07 0.29 0.19 0.38 0.17 0.12 0.09 0.08 0.05 0.44 0.85 0.79 0.93 0.53 0.66 0.32 0.18 0.26 0.33 0.20 0.14 0.10 0.02 0.01 0.01 0.02 0.02 0.02 0.02 0.02 0.01 0.01 0.01 0.02 0.02 0.01 0.01 0.02 0.00 0.01 0.00 0.00 0.00 0.00 0.00 0.00 0.01 0.03 0.04 0.03 0.03 0.05 0.02 0.00 0.03 0.01 0.03 0.03 0.01 0.02 0.02 0.01 0.01 0.02 0.00 0.00 0.00 0.00 0.00 0.00
0.00 0.00 0.00 0.00 0.00 0.00 0.00 0.00 0.00 0.00 0.00 0.00 0.00 0.00 0.00 0.00 0.00 0.00 0.00 0.00 0.00 0.00 0.00 0.00 0.03 0.00 0.13 0.04 0.14 0.26 0.41 0.47 0.33 0.16 0.07 0.07 0.26 0.42 0.38 0.48 0.22 0.20 0.33 0.36 0.57 0.44 0.42 0.17 0.09 0.10 0.02 0.01 0.02 0.07 0.04 0.09 0.02 0.00 0.00 0.01 0.01 0.01 0.01 0.00 0.01 0.00 0.00 0.00 0.00 0.00 0.01 0.01 0.01 0.02 0.03 0.03 0.05 0.05 0.03 0.04 0.01 0.01 0.03 0.01 0.01 0.01 0.00 0.00 0.01 0.00 0.01 0.00 0.00 0.00 0.00 0.00 0.00
0.00 0.00 0.00 0.00 0.00 0.00 0.00 0.00 0.00 0.00 0.00 0.00 0.00 0.00 0.00 0.00 0.00 0.00 0.00 0.00 0.00 0.00 0.00 0.00 0.00 0.01 0.20 0.07 0.26 0.39 0.43 0.33 0.42 0.12 0.44 0.25 0.43 0.16 0.30 0.32 0.28 0.34 0.34 0.65 0.55 0.20 0.12 0.11 0.09 0.10 0.07 0.02 0.02 0.09 0.07 0.17 0.12 0.08 0.01 0.05 0.08 0.05 0.05 0.05 0.03 0.00 0.00 0.01 0.01 0.01 0.01 0.02 0.01 0.02 0.04 0.02 0.03 0.04 0.05 0.04 0.03 0.03 0.02 0.03 0.03 0.01 0.01 0.00 0.00 0.00 0.01 0.01 0.00 0.00 0.00 0.00 0.00
0.00 0.00 0.00 0.00 0.00 0.00 0.00 0.00 0.00 0.00 0.00 0.00 0.00 0.00 0.00 0.00 0.00 0.00 0.00 0.00 0.00 0.00 0.00 0.00 0.00 0.00 0.15 0.10 0.20 0.58 0.32 0.32 0.35 0.44 0.13 0.18 0.03 0.04 0.12 0.58 0.49 0.24 0.51 0.50 0.19 0.50 0.20 0.10 0.11 0.17 0.11 0.09 0.14 0.14 0.15 0.21 0.20 0.13 0.11 0.14 0.13 0.15 0.15 0.08 0.04 0.05 0.09 0.06 0.06 0.03 0.01 0.04 0.03 0.03 0.04 0.03 0.03 0.01 0.02 0.02 0.01 0.03 0.03 0.04 0.03 0.01 0.01 0.01 0.01 0.01 0.00 0.00 0.00 0.00 0.00 0.00 0.00
0.00 0.00 0.00 0.00 0.00 0.00 0.00 0.00 0.00 0.00 0.00 0.00 0.00 0.00 0.00 0.00 0.00 0.00 0.00 0.00 0.00 0.00 0.00 0.00 0.00 0.00 0.28 0.02 0.15 0.12 0.23 0.19 0.09 0.07 0.10 0.16 0.40 0.38 0.41 0.41 0.48 0.94 0.63 0.36 0.18 0.11 0.17 0.14 0.26 0.16 0.09 0.08 0.12 0.12 0.17 0.11 0.23 0.18 0.11 0.24 0.14 0.16 0.32 0.16 0.21 0.11 0.12 0.05 0.05 0.08 0.05 0.03 0.15 0.15 0.05 0.03 0.05 0.02 0.01 0.01 0.00 0.02 0.06 0.04 0.03 0.01 0.01 0.02 0.01 0.01 0.00 0.00 0.00 0.00 0.00 0.00 0.00
0.00 0.00 0.00 0.00 0.00 0.00 0.00 0.00 0.00 0.00 0.00 0.00 0.00 0.00 0.00 0.00 0.00 0.00 0.00 0.00 0.00 0.00 0.00 0.01 0.00 0.00 0.08 0.01 0.04 0.05 0.08 0.14 0.19 0.05 0.08 0.35 0.26 0.30 0.45 0.45 0.50 1.05 0.64 0.30 0.11 0.12 0.09 0.11 0.08 0.09 0.09 0.07 0.05 0.11 0.16 0.12 0.07 0.18 0.17 0.22 0.32 0.21 0.25 0.28 0.18 0.10 0.11 0.12 0.06 0.11 0.07 0.07 0.20 0.09 0.12 0.07 0.05 0.04 0.00 0.06 0.02 0.03 0.03 0.03 0.07 0.02 0.04 0.01 0.00 0.02 0.01 0.00 0.00 0.00 0.00 0.00 0.00
0.00 0.00 0.00 0.00 0.00 0.00 0.00 0.00 0.00 0.00 0.00 0.00 0.00 0.00 0.00 0.00 0.00 0.00 0.00 0.00 0.00 0.00 0.00 0.00 0.00 0.00 0.01 0.01 0.01 0.02 0.10 0.10 0.06 0.07 0.08 0.08 0.09 0.09 0.07 0.15 0.20 0.30 0.34 0.22 0.11 0.21 0.19 0.19 0.19 0.07 0.06 0.11 0.14 0.10 0.09 0.09 0.07 0.13 0.07 0.10 0.13 0.18 0.22 0.22 0.15 0.23 0.15 0.15 0.12 0.09 0.06 0.17 0.35 0.12 0.23 0.16 0.12 0.08 0.02 0.01 0.03 0.07 0.04 0.03 0.03 0.02 0.05 0.01 0.01 0.01 0.02 0.00 0.00 0.00 0.00 0.00 0.00
0.00 0.00 0.00 0.00 0.00 0.00 0.00 0.00 0.00 0.00 0.00 0.00 0.00 0.00 0.00 0.00 0.00 0.00 0.00 0.00 0.00 0.00 0.00 0.00 0.00 0.01 0.01 0.03 0.08 0.04 0.07 0.08 0.06 0.06 0.08 0.08 0.07 0.16 0.16 0.19 0.19 0.11 0.11 0.14 0.17 0.16 0.14 0.14 0.15 0.10 0.14 0.08 0.08 0.13 0.16 0.12 0.10 0.08 0.12 0.08 0.07 0.08 0.11 0.18 0.14 0.16 0.34 0.13 0.11 0.11 0.29 0.31 0.30 0.25 0.19 0.38 0.09 0.15 0.10 0.01 0.03 0.02 0.03 0.03 0.05 0.01 0.01 0.02 0.04 0.03 0.02 0.01 0.00 0.00 0.00 0.00 0.00
0.00 0.00 0.00 0.00 0.00 0.00 0.00 0.00 0.00 0.00 0.00 0.00 0.00 0.00 0.00 0.00 0.00 0.00 0.00 0.00 0.00 0.00 0.00 0.00 0.00 0.03 0.02 0.05 0.01 0.09 0.06 0.07 0.06 0.05 0.05 0.08 0.08 0.09 0.15 0.14 0.13 0.14 0.12 0.04 0.03 0.08 0.05 0.03 0.06 0.06 0.10 0.05 0.06 0.18 0.15 0.12 0.16 0.12 0.14 0.11 0.09 0.09 0.26 0.11 0.21 0.21 0.25 0.23 0.20 0.11 0.33 0.27 0.22 0.64 0.38 0.13 0.13 0.14 0.14 0.07 0.05 0.04 0.01 0.03 0.02 0.02 0.02 0.01 0.03 0.07 0.03 0.01 0.00 0.00 0.00 0.00 0.00
0.00 0.00 0.00 0.00 0.00 0.00 0.00 0.00 0.00 0.00 0.00 0.00 0.00 0.00 0.00 0.00 0.00 0.00 0.00 0.00 0.00 0.00 0.00 0.00 0.00 0.02 0.01 0.03 0.05 0.07 0.15 0.10 0.14 0.07 0.07 0.07 0.12 0.29 0.42 0.35 0.10 0.06 0.10 0.06 0.02 0.02 0.01 0.01 0.01 0.01 0.02 0.04 0.09 0.12 0.15 0.12 0.12 0.15 0.10 0.15 0.13 0.12 0.12 0.18 0.20 0.26 0.33 0.32 0.18 0.26 0.28 0.26 0.17 0.75 0.44 0.41 0.41 0.30 0.20 0.07 0.06 0.04 0.04 0.04 0.01 0.03 0.06 0.04 0.02 0.04 0.03 0.04 0.00 0.00 0.01 0.01 0.00
0.00 0.00 0.00 0.00 0.00 0.00 0.00 0.00 0.00 0.00 0.00 0.00 0.00 0.00 0.00 0.00 0.00 0.00 0.00 0.00 0.00 0.00 0.00 0.00 0.00 0.00 0.02 0.04 0.07 0.08 0.14 0.21 0.24 0.29 0.18 0.45 0.63 0.38 0.45 0.15 0.07 0.03 0.02 0.01 0.00 0.00 0.00 0.00 0.01 0.01 0.01 0.00 0.03 0.15 0.11 0.07 0.12 0.11 0.19 0.07 0.08 0.13 0.07 0.14 0.13 0.28 0.24 0.41 0.36 0.36 0.39 0.23 0.22 0.32 0.09 0.13 0.27 0.26 0.26 0.13 0.12 0.07 0.02 0.03 0.02 0.03 0.05 0.12 0.05 0.12 0.07 0.01 0.01 0.01 0.01 0.03 0.02
0.00 0.00 0.00 0.00 0.00 0.00 0.00 0.00 0.00 0.00 0.00 0.00 0.00 0.00 0.00 0.00 0.00 0.00 0.00 0.00 0.00 0.00 0.00 0.00 0.00 0.00 0.05 0.13 0.05 0.13 0.14 0.16 0.28 0.37 0.32 0.36 0.39 0.41 0.31 0.36 0.60 0.11 0.01 0.01 0.01 0.01 0.01 0.01 0.01 0.00 0.00 0.01 0.02 0.01 0.05 0.13 0.11 0.10 0.10 0.10 0.12 0.10 0.10 0.11 0.16 0.14 0.28 0.31 0.31 0.43 0.34 0.17 0.08 0.09 0.20 0.13 0.71 0.79 0.33 0.10 0.10 0.09 0.06 0.06 0.04 0.04 0.13 0.18 0.08 0.05 0.04 0.02 0.01 0.01 0.01 0.02 0.01
0.00 0.00 0.00 0.00 0.00 0.00 0.00 0.00 0.00 0.00 0.00 0.00 0.00 0.00 0.00 0.00 0.00 0.00 0.00 0.00 0.00 0.00 0.00 0.00 0.03 0.02 0.05 0.07 0.04 0.11 0.43 0.36 0.15 0.32 0.28 0.25 0.36 0.33 0.26 0.39 0.16 0.10 0.03 0.02 0.01 0.01 0.00 0.01 0.00 0.00 0.00 0.00 0.00 0.04 0.02 0.01 0.13 0.14 0.11 0.15 0.21 0.18 0.27 0.16 0.11 0.13 0.18 0.21 0.37 0.26 0.48 0.15 0.15 0.19 0.20 0.27 0.43 0.29 0.22 0.21 0.17 0.10 0.19 0.17 0.07 0.03 0.19 0.11 0.17 0.23 0.22 0.03 0.03 0.01 0.01 0.01 0.01
0.00 0.00 0.00 0.00 0.00 0.00 0.00 0.00 0.00 0.00 0.00 0.00 0.00 0.00 0.00 0.00 0.00 0.00 0.00 0.00 0.00 0.00 0.01 0.00 0.06 0.03 0.06 0.11 0.14 0.08 0.10 0.12 0.34 0.21 0.21 0.36 0.17 0.01 0.22 0.38 0.32 0.21 0.05 0.04 0.03 0.03 0.01 0.00 0.00 0.00 0.00 0.01 0.00 0.00 0.01 0.02 0.03 0.04 0.11 0.32 0.23 0.38 0.20 0.12 0.21 0.04 0.17 0.07 0.28 0.26 0.12 0.31 0.20 0.33 0.22 0.17 0.09 0.49 0.32 0.29 0.21 0.25 0.40 0.53 0.29 0.02 0.38 0.11 0.16 0.06 0.09 0.21 0.01 0.00 0.00 0.01 0.02
0.00 0.00 0.00 0.00 0.00 0.00 0.00 0.00 0.00 0.00 0.00 0.00 0.00 0.00 0.00 0.00 0.00 0.00 0.00 0.00 0.00 0.00 0.01 0.03 0.02 0.02 0.02 0.02 0.05 0.04 0.06 0.18 0.36 0.27 0.07 0.17 0.04 0.08 0.04 0.14 0.29 0.35 0.34 0.10 0.02 0.01 0.00 0.00 0.00 0.00 0.00 0.00 0.00 0.00 0.01 0.01 0.02 0.03 0.02 0.04 0.15 0.38 0.23 0.24 0.13 0.08 0.07 0.11 0.12 0.14 0.14 0.11 0.27 0.19 0.24 0.23 0.21 0.34 0.55 0.26 0.19 0.20 0.29 0.29 0.64 0.18 0.25 0.05 0.03 0.03 0.02 0.01 0.00 0.00 0.00 0.00 0.00
0.00 0.00 0.00 0.00 0.00 0.00 0.00 0.00 0.00 0.00 0.00 0.00 0.00 0.00 0.00 0.00 0.00 0.00 0.00 0.00 0.00 0.00 0.01 0.01 0.00 0.03 0.01 0.05 0.02 0.07 0.09 0.18 0.21 0.20 0.11 0.21 0.25 0.21 0.03 0.00 0.12 0.44 0.40 0.19 0.04 0.02 0.01 0.00 0.00 0.00 0.00 0.00 0.00 0.00 0.00 0.00 0.01 0.02 0.03 0.05 0.10 0.19 0.21 0.24 0.05 0.14 0.09 0.08 0.08 0.11 0.23 0.08 0.14 0.15 0.15 0.08 0.12 0.28 0.35 0.16 0.34 0.25 0.15 0.29 0.25 0.52 0.33 0.11 0.02 0.02 0.01 0.00 0.02 0.00 0.00 0.00 0.00
0.00 0.00 0.00 0.00 0.00 0.00 0.00 0.00 0.00 0.00 0.00 0.00 0.00 0.00 0.00 0.00 0.00 0.00 0.00 0.00 0.00 0.00 0.00 0.00 0.05 0.04 0.01 0.06 0.13 0.08 0.01 0.10 0.16 0.24 0.32 0.13 0.16 0.52 0.36 0.06 0.00 0.12 0.31 0.21 0.17 0.19 0.15 0.02 0.00 0.00 0.00 0.00 0.00 0.00 0.00 0.00 0.00 0.00 0.01 0.04 0.18 0.13 0.12 0.12 0.13 0.11 0.09 0.06 0.11 0.09 0.07 0.08 0.29 0.45 0.30 0.11 0.43 0.42 0.71 0.30 0.49 0.74 0.61 0.40 0.58 0.17 0.05 0.02 0.03 0.03 0.02 0.03 0.00 0.01 0.00 0.00 0.00
0.00 0.00 0.00 0.00 0.00 0.00 0.00 0.00 0.00 0.00 0.00 0.00 0.00 0.00 0.00 0.00 0.00 0.00 0.00 0.00 0.00 0.00 0.01 0.02 0.02 0.06 0.06 0.08 0.09 0.06 0.09 0.15 0.27 0.23 0.29 0.09 0.10 0.33 0.43 0.14 0.10 0.03 0.03 0.18 0.08 0.11 0.12 0.03 0.00 0.00 0.00 0.00 0.00 0.00 0.00 0.00 0.00 0.00 0.01 0.02 0.06 0.12 0.15 0.15 0.22 0.17 0.09 0.09 0.06 0.10 0.13 0.10 0.12 0.13 0.16 0.27 0.61 0.59 1.28 0.78 0.93 0.76 0.37 0.67 0.44 0.10 0.03 0.05 0.11 0.04 0.08 0.05 0.01 0.07 0.03 0.00 0.00
0.00 0.00 0.00 0.00 0.00 0.00 0.00 0.00 0.00 0.00 0.00 0.00 0.00 0.00 0.00 0.00 0.00 0.00 0.00 0.00 0.00 0.00 0.00 0.02 0.00 0.01 0.02 0.04 0.04 0.06 0.13 0.11 0.01 0.08 0.32 0.37 0.54 0.33 0.31 0.19 0.20 0.12 0.04 0.01 0.01 0.00 0.00 0.00 0.00 0.00 0.00 0.00 0.00 0.00 0.00 0.00 0.00 0.00 0.01 0.01 0.04 0.10 0.21 0.26 0.50 0.28 0.26 0.11 0.13 0.09 0.12 0.19 0.22 0.19 0.19 0.28 0.29 0.28 0.74 0.86 1.28 1.37 0.78 0.36 0.36 0.04 0.03 0.01 0.04 0.08 0.02 0.03 0.06 0.04 0.03 0.00 0.00
0.00 0.00 0.00 0.00 0.00 0.00 0.00 0.00 0.00 0.00 0.00 0.00 0.00 0.00 0.00 0.00 0.00 0.00 0.00 0.00 0.00 0.00 0.00 0.00 0.01 0.01 0.01 0.02 0.08 0.08 0.08 0.11 0.04 0.29 0.58 0.45 0.38 0.32 0.23 0.27 0.14 0.19 0.08 0.02 0.00 0.00 0.00 0.00 0.00 0.00 0.00 0.00 0.00 0.00 0.00 0.00 0.00 0.00 0.00 0.00 0.01 0.01 0.05 0.13 0.40 0.22 0.10 0.16 0.14 0.14 0.16 0.15 0.36 0.52 0.11 0.49 0.72 0.35 0.32 0.76 0.77 0.70 0.63 0.76 0.81 0.17 0.02 0.01 0.01 0.02 0.06 0.04 0.02 0.06 0.03 0.01 0.02
0.00 0.00 0.00 0.00 0.00 0.00 0.00 0.00 0.00 0.00 0.00 0.00 0.00 0.00 0.00 0.00 0.00 0.00 0.00 0.00 0.00 0.00 0.02 0.02 0.03 0.04 0.01 0.03 0.02 0.06 0.08 0.14 0.39 0.49 0.48 0.29 0.32 0.43 0.10 0.12 0.12 0.07 0.04 0.01 0.00 0.00 0.00 0.00 0.00 0.00 0.00 0.00 0.00 0.00 0.00 0.00 0.00 0.00 0.00 0.00 0.01 0.00 0.00 0.01 0.12 0.17 0.19 0.12 0.18 0.19 0.19 0.16 0.20 0.36 0.23 0.19 0.36 0.20 0.11 0.09 0.43 0.64 0.89 0.50 0.74 0.39 0.11 0.02 0.03 0.01 0.01 0.00 0.01 0.06 0.02 0.06 0.01
0.00 0.00 0.00 0.00 0.00 0.00 0.00 0.00 0.00 0.00 0.00 0.00 0.00 0.00 0.00 0.00 0.00 0.00 0.00 0.00 0.00 0.00 0.00 0.02 0.03 0.01 0.18 0.02 0.04 0.03 0.05 0.29 0.59 0.32 0.48 0.21 0.19 0.20 0.06 0.04 0.05 0.05 0.05 0.01 0.00 0.00 0.00 0.00 0.00 0.00 0.00 0.00 0.00 0.00 0.00 0.00 0.00 0.00 0.00 0.00 0.00 0.00 0.01 0.00 0.01 0.08 0.04 0.18 0.09 0.11 0.29 0.40 0.28 0.38 0.22 0.25 0.38 0.44 0.31 0.23 0.29 0.56 0.64 0.49 0.47 0.55 0.31 0.13 0.08 0.39 0.26 0.09 0.15 0.02 0.00 0.02 0.03
0.00 0.00 0.00 0.00 0.00 0.00 0.00 0.00 0.00 0.00 0.00 0.00 0.00 0.00 0.00 0.00 0.00 0.00 0.00 0.00 0.00 0.00 0.00 0.01 0.03 0.03 0.15 0.03 0.05 0.04 0.06 0.17 0.07 0.08 0.05 0.01 0.03 0.04 0.03 0.02 0.01 0.00 0.01 0.00 0.00 0.00 0.00 0.00 0.00 0.00 0.00 0.00 0.00 0.00 0.00 0.00 0.00 0.00 0.00 0.00 0.00 0.00 0.00 0.00 0.00 0.01 0.03 0.04 0.03 0.08 0.15 0.19 0.31 0.31 0.20 0.31 0.41 0.74 0.73 0.79 1.02 0.77 0.62 0.53 0.50 0.59 0.61 0.36 0.40 0.10 0.50 0.35 0.29 0.53 0.21 0.04 0.04
0.00 0.00 0.00 0.00 0.00 0.00 0.00 0.00 0.00 0.00 0.00 0.00 0.00 0.00 0.00 0.00 0.00 0.00 0.00 0.00 0.00 0.00 0.00 0.01 0.00 0.00 0.00 0.01 0.02 0.02 0.08 0.06 0.03 0.03 0.02 0.01 0.00 0.02 0.01 0.02 0.00 0.01 0.00 0.00 0.00 0.00 0.00 0.00 0.00 0.00 0.00 0.00 0.00 0.00 0.00 0.00 0.00 0.00 0.00 0.00 0.00 0.00 0.00 0.00 0.00 0.00 0.00 0.01 0.02 0.05 0.10 0.06 0.08 0.16 0.32 0.24 0.88 0.56 0.90 0.95 0.78 0.50 0.40 0.76 0.81 0.61 0.49 0.71 1.22 0.85 0.28 0.28 0.22 0.56 0.56 0.22 0.28
0.00 0.00 0.00 0.00 0.00 0.00 0.00 0.00 0.00 0.00 0.00 0.00 0.00 0.00 0.00 0.00 0.00 0.00 0.00 0.00 0.00 0.01 0.00 0.00 0.00 0.02 0.05 0.03 0.01 0.01 0.04 0.06 0.03 0.01 0.00 0.00 0.00 0.00 0.00 0.00 0.00 0.00 0.01 0.00 0.00 0.00 0.00 0.00 0.00 0.00 0.00 0.00 0.00 0.00 0.00 0.00 0.00 0.00 0.00 0.00 0.00 0.00 0.00 0.00 0.00 0.00 0.01 0.01 0.01 0.01 0.01 0.02 0.02 0.11 0.07 0.13 0.31 0.46 0.45 0.44 0.89 0.50 0.52 0.42 0.43 0.88 0.73 0.60 0.81 0.44 0.43 0.52 0.48 0.87 1.53 1.06 1.02
0.00 0.00 0.00 0.00 0.00 0.00 0.00 0.00 0.00 0.00 0.00 0.00 0.00 0.00 0.00 0.00 0.00 0.00 0.00 0.01 0.00 0.00 0.00 0.00 0.00 0.01 0.01 0.00 0.00 0.05 0.00 0.03 0.02 0.00 0.03 0.00 0.00 0.00 0.00 0.01 0.00 0.00 0.00 0.00 0.00 0.00 0.00 0.00 0.00 0.00 0.00 0.00 0.00 0.00 0.00 0.00 0.00 0.00 0.00 0.00 0.00 0.00 0.00 0.00 0.00 0.01 0.00 0.00 0.00 0.00 0.01 0.01 0.02 0.01 0.02 0.02 0.05 0.06 0.08 0.10 0.23 0.40 0.79 0.54 1.24 1.01 0.59 0.82 1.22 0.43 0.32 0.48 1.19 0.63 0.48 0.54 0.79
0.00 0.00 0.00 0.00 0.00 0.00 0.00 0.00 0.00 0.00 0.00 0.00 0.00 0.00 0.00 0.00 0.00 0.00 0.00 0.00 0.00 0.00 0.00 0.00 0.00 0.00 0.00 0.01 0.01 0.01 0.01 0.03 0.03 0.00 0.00 0.00 0.01 0.01 0.00 0.01 0.01 0.00 0.00 0.00 0.00 0.00 0.00 0.00 0.00 0.00 0.00 0.00 0.00 0.00 0.00 0.00 0.00 0.00 0.00 0.00 0.00 0.00 0.00 0.00 0.00 0.00 0.00 0.00 0.00 0.00 0.00 0.00 0.00 0.00 0.00 0.00 0.00 0.00 0.02 0.05 0.10 0.10 0.22 0.88 0.31 0.32 0.36 0.86 0.89 0.68 0.47 0.66 1.02 0.73 0.59 0.63 0.45
0.00 0.00 0.00 0.00 0.00 0.00 0.00 0.00 0.00 0.00 0.00 0.00 0.00 0.00 0.00 0.00 0.00 0.00 0.00 0.00 0.00 0.00 0.00 0.00 0.00 0.00 0.00 0.00 0.00 0.01 0.03 0.07 0.01 0.00 0.00 0.00 0.00 0.02 0.05 0.02 0.00 0.02 0.00 0.00 0.00 0.00 0.00 0.00 0.00 0.00 0.00 0.00 0.00 0.00 0.00 0.00 0.00 0.00 0.00 0.00 0.00 0.00 0.00 0.00 0.00 0.00 0.00 0.00 0.00 0.00 0.00 0.00 0.00 0.00 0.00 0.00 0.00 0.00 0.00 0.01 0.03 0.09 0.14 0.50 0.11 0.53 0.19 0.38 1.15 1.12 0.89 1.20 0.53 0.31 0.56 0.91 1.03
0.00 0.00 0.00 0.00 0.00 0.00 0.00 0.00 0.00 0.00 0.00 0.00 0.00 0.00 0.00 0.00 0.00 0.00 0.00 0.00 0.00 0.00 0.00 0.00 0.00 0.00 0.00 0.00 0.00 0.00 0.00 0.02 0.00 0.00 0.01 0.01 0.00 0.02 0.02 0.01 0.00 0.01 0.00 0.00 0.00 0.00 0.00 0.00 0.00 0.00 0.00 0.00 0.00 0.00 0.00 0.00 0.00 0.00 0.00 0.00 0.00 0.00 0.00 0.00 0.00 0.00 0.00 0.00 0.00 0.00 0.00 0.00 0.00 0.00 0.00 0.00 0.00 0.00 0.00 0.00 0.01 0.02 0.04 0.14 0.36 0.21 0.08 0.13 0.38 0.88 0.36 0.56 0.72 0.43 0.49 1.06 1.10
0.00 0.00 0.00 0.00 0.00 0.00 0.01 0.00 0.00 0.00 0.00 0.00 0.00 0.00 0.01 0.00 0.00 0.00 0.00 0.00 0.00 0.00 0.00 0.00 0.00 0.00 0.00 0.00 0.00 0.00 0.01 0.02 0.02 0.01 0.02 0.00 0.00 0.02 0.00 0.02 0.01 0.02 0.00 0.00 0.00 0.00 0.00 0.00 0.00 0.00 0.00 0.00 0.00 0.00 0.00 0.00 0.00 0.00 0.00 0.00 0.00 0.00 0.00 0.00 0.00 0.00 0.00 0.00 0.00 0.00 0.00 0.00 0.00 0.00 0.00 0.00 0.00 0.00 0.00 0.00 0.00 0.02 0.03 0.06 0.10 0.22 0.21 1.10 0.81 0.90 0.74 1.18 0.72 0.86 0.39 0.71 0.53
0.00 0.00 0.00 0.00 0.00 0.00 0.00 0.02 0.00 0.00 0.00 0.00 0.00 0.00 0.00 0.00 0.00 0.00 0.00 0.00 0.00 0.00 0.00 0.00 0.00 0.00 0.00 0.00 0.00 0.00 0.00 0.00 0.03 0.02 0.00 0.02 0.01 0.01 0.02 0.00 0.03 0.01 0.00 0.01 0.00 0.00 0.00 0.00 0.00 0.00 0.00 0.00 0.00 0.00 0.00 0.00 0.00 0.00 0.00 0.00 0.00 0.00 0.00 0.00 0.00 0.00 0.00 0.00 0.00 0.00 0.00 0.00 0.00 0.00 0.00 0.00 0.00 0.00 0.00 0.00 0.00 0.00 0.02 0.02 0.04 0.08 0.08 0.05 0.07 0.33 0.42 0.35 0.44 0.39 0.67 0.61 0.56
0.00 0.00 0.00 0.00 0.00 0.00 0.00 0.00 0.00 0.00 0.02 0.00 0.00 0.00 0.00 0.01 0.00 0.00 0.00 0.00 0.00 0.00 0.00 0.00 0.00 0.00 0.00 0.00 0.00 0.00 0.00 0.00 0.00 0.00 0.01 0.00 0.00 0.04 0.03 0.02 0.01 0.02 0.01 0.00 0.00 0.00 0.00 0.00 0.00 0.00 0.00 0.00 0.00 0.00 0.00 0.00 0.00 0.00 0.00 0.00 0.00 0.00 0.00 0.00 0.00 0.00 0.00 0.00 0.00 0.00 0.00 0.00 0.00 0.00 0.00 0.00 0.00 0.00 0.00 0.00 0.00 0.00 0.00 0.01 0.01 0.02 0.02 0.02 0.01 0.05 0.21 0.42 0.47 0.45 0.62 0.59 0.54
0.00 0.02 0.00 0.00 0.00 0.00 0.00 0.00 0.00 0.00 0.00 0.03 0.00 0.01 0.00 0.00 0.00 0.00 0.00 0.00 0.00 0.00 0.00 0.00 0.00 0.00 0.00 0.00 0.00 0.00 0.00 0.00 0.00 0.07 0.03 0.01 0.01 0.01 0.00 0.00 0.03 0.00 0.00 0.00 0.01 0.01 0.00 0.00 0.00 0.00 0.00 0.00 0.00 0.00 0.00 0.00 0.00 0.00 0.00 0.00 0.00 0.00 0.00 0.00 0.00 0.00 0.00 0.00 0.00 0.00 0.00 0.00 0.00 0.00 0.00 0.00 0.00 0.00 0.00 0.00 0.00 0.00 0.00 0.00 0.00 0.00 0.00 0.00 0.00 0.00 0.02 0.04 0.04 0.09 0.17 0.66 0.56
0.02 0.01 0.00 0.00 0.00 0.00 0.00 0.00 0.00 0.01 0.00 0.01 0.00 0.00 0.00 0.00 0.04 0.00 0.00 0.00 0.00 0.00 0.00 0.00 0.00 0.00 0.00 0.00 0.00 0.00 0.00 0.00 0.00 0.00 0.00 0.01 0.00 0.04 0.06 0.03 0.01 0.04 0.05 0.02 0.04 0.00 0.00 0.00 0.00 0.00 0.00 0.00 0.00 0.00 0.00 0.00 0.00 0.00 0.00 0.00 0.00 0.00 0.00 0.00 0.00 0.00 0.00 0.00 0.00 0.00 0.00 0.00 0.00 0.00 0.00 0.00 0.00 0.00 0.00 0.00 0.00 0.00 0.00 0.00 0.00 0.00 0.00 0.00 0.00 0.00 0.00 0.00 0.00 0.00 0.08 0.21 0.18
0.01 0.00 0.00 0.00 0.00 0.02 0.00 0.00 0.01 0.02 0.00 0.01 0.00 0.00 0.00 0.00 0.00 0.00 0.00 0.00 0.00 0.01 0.00 0.00 0.00 0.00 0.00 0.00 0.00 0.00 0.00 0.00 0.00 0.00 0.00 0.00 0.01 0.02 0.05 0.11 0.09 0.08 0.09 0.08 0.06 0.04 0.02 0.00 0.00 0.00 0.00 0.00 0.00 0.00 0.00 0.00 0.00 0.00 0.00 0.00 0.00 0.00 0.00 0.00 0.00 0.00 0.00 0.00 0.00 0.00 0.00 0.00 0.00 0.00 0.00 0.00 0.00 0.00 0.00 0.00 0.00 0.00 0.00 0.00 0.00 0.00 0.00 0.00 0.00 0.00 0.00 0.00 0.00 0.00 0.00 0.00 0.03
0.00 0.00 0.00 0.00 0.00 0.00 0.00 0.02 0.00 0.06 0.00 0.00 0.01 0.05 0.00 0.02 0.00 0.00 0.01 0.00 0.01 0.04 0.01 0.00 0.00 0.00 0.00 0.00 0.00 0.00 0.00 0.00 0.00 0.00 0.00 0.00 0.00 0.00 0.01 0.01 0.24 0.19 0.13 0.18 0.25 0.18 0.12 0.16 0.01 0.00 0.00 0.00 0.00 0.00 0.00 0.00 0.00 0.00 0.00 0.00 0.00 0.00 0.00 0.00 0.00 0.00 0.00 0.00 0.00 0.00 0.00 0.00 0.00 0.00 0.00 0.00 0.00 0.00 0.00 0.00 0.00 0.00 0.00 0.00 0.00 0.00 0.00 0.00 0.00 0.00 0.00 0.00 0.00 0.00 0.00 0.00 0.00
0.00 0.00 0.00 0.00 0.00 0.03 0.01 0.00 0.02 0.01 0.01 0.00 0.02 0.01 0.01 0.01 0.03 0.01 0.01 0.00 0.00 0.00 0.00 0.00 0.00 0.00 0.00 0.00 0.00 0.00 0.00 0.00 0.00 0.00 0.00 0.00 0.00 0.00 0.00 0.02 0.04 0.09 0.19 0.31 0.34 0.16 0.16 0.23 0.09 0.01 0.01 0.00 0.00 0.00 0.00 0.00 0.00 0.00 0.00 0.00 0.00 0.00 0.00 0.00 0.00 0.00 0.00 0.00 0.00 0.00 0.00 0.00 0.00 0.00 0.00 0.00 0.00 0.00 0.00 0.00 0.00 0.00 0.00 0.00 0.00 0.00 0.00 0.00 0.00 0.00 0.00 0.00 0.00 0.00 0.00 0.00 0.00
0.00 0.00 0.02 0.00 0.02 0.00 0.01 0.02 0.02 0.04 0.00 0.01 0.01 0.00 0.01 0.01 0.01 0.02 0.01 0.00 0.00 0.00 0.00 0.00 0.00 0.00 0.00 0.00 0.00 0.00 0.00 0.00 0.00 0.00 0.00 0.00 0.00 0.00 0.00 0.00 0.00 0.00 0.02 0.20 0.27 0.15 0.14 0.18 0.19 0.05 0.01 0.01 0.00 0.00 0.00 0.00 0.00 0.00 0.00 0.00 0.00 0.00 0.00 0.00 0.00 0.00 0.00 0.00 0.00 0.00 0.00 0.00 0.00 0.00 0.00 0.00 0.00 0.00 0.00 0.00 0.00 0.00 0.00 0.00 0.00 0.00 0.00 0.00 0.00 0.00 0.00 0.00 0.00 0.00 0.00 0.00 0.00
0.00 0.00 0.02 0.17 0.07 0.01 0.06 0.04 0.02 0.00 0.00 0.06 0.00 0.01 0.00 0.00 0.00 0.00 0.00 0.00 0.00 0.00 0.00 0.00 0.00 0.00 0.00 0.00 0.00 0.00 0.00 0.00 0.00 0.00 0.00 0.00 0.00 0.00 0.00 0.00 0.00 0.02 0.00 0.04 0.14 0.22 0.24 0.15 0.14 0.03 0.03 0.01 0.00 0.00 0.00 0.00 0.00 0.00 0.00 0.00 0.00 0.00 0.00 0.00 0.00 0.00 0.00 0.00 0.00 0.00 0.00 0.00 0.00 0.00 0.00 0.00 0.00 0.00 0.00 0.00 0.00 0.00 0.00 0.00 0.00 0.00 0.00 0.00 0.00 0.00 0.00 0.00 0.00 0.00 0.00 0.00 0.00
0.00 0.03 0.08 0.03 0.10 0.04 0.01 0.03 0.01 0.03 0.01 0.01 0.04 0.00 0.00 0.03 0.02 0.00 0.00 0.00 0.00 0.00 0.00 0.00 0.00 0.00 0.00 0.00 0.00 0.00 0.00 0.00 0.00 0.00 0.00 0.00 0.00 0.00 0.00 0.00 0.00 0.01 0.00 0.03 0.05 0.21 0.24 0.34 0.64 0.59 0.36 0.03 0.01 0.00 0.00 0.00 0.00 0.00 0.01 0.01 0.00 0.00 0.00 0.00 0.00 0.00 0.00 0.00 0.00 0.00 0.00 0.00 0.00 0.00 0.00 0.00 0.00 0.00 0.00 0.00 0.00 0.00 0.00 0.00 0.00 0.00 0.00 0.00 0.00 0.00 0.00 0.00 0.00 0.00 0.00 0.00 0.00
0.01 0.00 0.00 0.08 0.05 0.05 0.01 0.04 0.01 0.02 0.06 0.01 0.01 0.00 0.00 0.00 0.03 0.00 0.00 0.00 0.00 0.00 0.00 0.00 0.00 0.00 0.00 0.00 0.00 0.00 0.00 0.00 0.00 0.00 0.00 0.00 0.00 0.00 0.00 0.00 0.00 0.00 0.00 0.02 0.01 0.12 0.17 0.27 0.70 1.09 0.78 0.52 0.06 0.01 0.00 0.00 0.00 0.00 0.00 0.02 0.00 0.00 0.00 0.00 0.00 0.00 0.00 0.00 0.00 0.00 0.00 0.00 0.00 0.00 0.00 0.00 0.00 0.00 0.00 0.00 0.00 0.00 0.00 0.00 0.00 0.00 0.00 0.00 0.00 0.00 0.00 0.00 0.00 0.00 0.00 0.00 0.00
0.01 0.00 0.00 0.01 0.01 0.00 0.05 0.06 0.01 0.02 0.01 0.01 0.00 0.00 0.06 0.08 0.01 0.01 0.00 0.00 0.00 0.00 0.00 0.00 0.00 0.00 0.00 0.01 0.00 0.00 0.00 0.00 0.00 0.00 0.00 0.00 0.00 0.00 0.00 0.00 0.00 0.00 0.01 0.01 0.02 0.08 0.11 0.19 0.78 1.09 1.16 0.58 0.23 0.06 0.03 0.07 0.03 0.01 0.01 0.03 0.06 0.00 0.00 0.00 0.00 0.00 0.00 0.00 0.00 0.00 0.00 0.00 0.00 0.00 0.00 0.00 0.00 0.00 0.00 0.00 0.00 0.00 0.00 0.00 0.00 0.00 0.00 0.00 0.00 0.00 0.00 0.00 0.00 0.00 0.00 0.00 0.00
0.05 0.00 0.04 0.02 0.01 0.01 0.04 0.00 0.00 0.00 0.00 0.00 0.00 0.01 0.02 0.00 0.00 0.00 0.01 0.01 0.01 0.01 0.00 0.00 0.00 0.01 0.00 0.01 0.12 0.21 0.18 0.15 0.01 0.00 0.00 0.00 0.00 0.00 0.00 0.00 0.00 0.00 0.00 0.00 0.03 0.03 0.23 0.34 0.44 0.42 0.88 0.29 0.44 0.54 0.25 0.07 0.03 0.08 0.02 0.02 0.05 0.04 0.01 0.00 0.00 0.00 0.00 0.00 0.00 0.00 0.00 0.00 0.00 0.00 0.00 0.00 0.00 0.00 0.00 0.00 0.00 0.00 0.00 0.00 0.00 0.00 0.00 0.00 0.00 0.00 0.00 0.00 0.00 0.00 0.00 0.00 0.00
0.00 0.02 0.03 0.00 0.00 0.00 0.01 0.05 0.03 0.00 0.02 0.00 0.00 0.00 0.04 0.01 0.06 0.00 0.00 0.00 0.00 0.00 0.00 0.00 0.00 0.01 0.01 0.01 0.01 0.02 0.09 0.02 0.00 0.00 0.00 0.00 0.00 0.00 0.00 0.00 0.00 0.00 0.00 0.00 0.01 0.02 0.05 0.04 0.14 0.68 1.01 0.40 0.41 0.54 0.49 0.68 0.17 0.06 0.06 0.04 0.03 0.02 0.02 0.01 0.02 0.00 0.00 0.00 0.00 0.00 0.00 0.00 0.00 0.00 0.00 0.00 0.00 0.00 0.00 0.00 0.00 0.00 0.00 0.00 0.00 0.00 0.00 0.00 0.00 0.00 0.00 0.00 0.00 0.00 0.00 0.00 0.00
0.00 0.00 0.00 0.00 0.03 0.03 0.03 0.00 0.00 0.01 0.00 0.03 0.00 0.02 0.01 0.01 0.07 0.00 0.01 0.01 0.00 0.00 0.00 0.00 0.00 0.00 0.00 0.01 0.01 0.01 0.00 0.01 0.01 0.02 0.03 0.01 0.00 0.00 0.00 0.01 0.00 0.00 0.00 0.00 0.00 0.01 0.01 0.02 0.15 0.16 0.31 0.41 0.95 0.37 0.14 0.44 0.16 0.10 0.08 0.06 0.03 0.01 0.00 0.01 0.01 0.01 0.00 0.01 0.00 0.00 0.00 0.00 0.00 0.00 0.00 0.00 0.00 0.00 0.00 0.00 0.00 0.00 0.00 0.00 0.00 0.00 0.00 0.00 0.00 0.00 0.00 0.00 0.00 0.00 0.00 0.00 0.00
0.00 0.00 0.00 0.00 0.00 0.00 0.03 0.02 0.08 0.01 0.02 0.01 0.01 0.01 0.04 0.01 0.11 0.00 0.01 0.00 0.01 0.00 0.00 0.00 0.00 0.00 0.00 0.00 0.00 0.00 0.00 0.00 0.00 0.00 0.00 0.01 0.00 0.01 0.02 0.01 0.00 0.00 0.00 0.00 0.00 0.00 0.01 0.05 0.01 0.05 0.09 0.20 0.09 0.37 0.40 0.35 0.17 0.35 0.09 0.02 0.00 0.01 0.01 0.02 0.04 0.01 0.01 0.00 0.02 0.00 0.00 0.00 0.00 0.00 0.00 0.00 0.00 0.00 0.00 0.00 0.00 0.00 0.00 0.00 0.00 0.00 0.00 0.00 0.00 0.00 0.00 0.00 0.00 0.00 0.00 0.00 0.00
0.00 0.00 0.00 0.00 0.00 0.00 0.00 0.02 0.01 0.07 0.08 0.02 0.06 0.02 0.04 0.09 0.03 0.02 0.01 0.00 0.02 0.01 0.00 0.01 0.00 0.00 0.00 0.00 0.00 0.00 0.00 0.00 0.00 0.00 0.00 0.00 0.00 0.01 0.04 0.05 0.06 0.06 0.02 0.00 0.00 0.00 0.00 0.00 0.00 0.01 0.03 0.11 0.47 0.52 0.67 0.47 0.28 0.04 0.02 0.01 0.01 0.01 0.01 0.01 0.01 0.05 0.03 0.00 0.01 0.00 0.00 0.00 0.00 0.00 0.00 0.00 0.00 0.00 0.00 0.00 0.00 0.00 0.00 0.00 0.00 0.00 0.00 0.00 0.00 0.00 0.00 0.00 0.00 0.00 0.00 0.00 0.00
0.00 0.00 0.05 0.05 0.07 0.09 0.08 0.01 0.00 0.07 0.01 0.02 0.03 0.01 0.08 0.06 0.00 0.00 0.01 0.01 0.03 0.00 0.01 0.00 0.00 0.00 0.00 0.00 0.00 0.00 0.00 0.00 0.00 0.00 0.00 0.00 0.00 0.00 0.01 0.04 0.01 0.02 0.10 0.07 0.06 0.02 0.01 0.02 0.02 0.01 0.02 0.02 0.16 0.21 0.14 0.04 0.08 0.07 0.05 0.03 0.02 0.02 0.00 0.02 0.02 0.07 0.09 0.01 0.00 0.02 0.02 0.01 0.00 0.00 0.01 0.00 0.00 0.00 0.00 0.00 0.00 0.00 0.00 0.00 0.00 0.00 0.00 0.00 0.00 0.00 0.00 0.00 0.00 0.00 0.00 0.00 0.00